Vorticity
8 9 9 9 9 8 7 7 6 6 8 9 8 7 8 7 8 9 12 7 8 11 6 12 10 12 15 10 2 3 -7 7 4 12 9 15 12 14 2 16 16 10 -4 3 9
9 10 9 9 9 9 8 8 7 8 9 11 12 10 9 9 7 8 10 8 9 5 6 9 8 18 15 7 8 19 -5 14 -6 10 3 11 19 17 7 9 5 9 4 0 5
10 10 9 8 9 9 9 8 9 12 13 13 12 12 13 12 11 10 12 6 6 7 5 6 7 11 10 12 11 -2 1 -5 4 22 -14 26 -15 8 17 10 6 5 -3 2 3
11 10 7 8 9 9 9 11 14 14 13 12 13 13 13 11 14 17 25 21 13 11 8 7 6 4 11 3 14 0 8 11 -24 20 7 1 -2 2 5 18 11 9 -1 4 8
9 7 8 8 9 10 12 14 12 11 12 13 14 18 18 14 13 -9 14 13 16 22 13 10 7 6 5 14 -2 18 -10 30 -10 -18 24 10 0 -3 -1 18 10 11 4 2 5
8 7 8 9 10 12 11 10 11 12 14 11 11 12 13 10 21 35 4 -1 13 11 22 16 9 7 11 6 18 16 14 -22 -5 6 4 4 5 10 2 10 7 10 1 6 5
7 7 9 10 12 10 9 10 13 14 16 15 14 13 9 9 20 17 25 6 12 -1 9 8 8 15 8 15 6 20 14 15 -15 7 2 22 8 -8 7 2 13 3 11 5 8
6 8 10 12 10 8 11 15 19 14 16 14 15 15 6 21 25 36 34 5 -4 3 12 -13 12 -3 8 -12 36 -6 8 -6 35 -1 3 28 4 2 15 8 6 10 9 5 4
8 10 12 11 9 11 13 17 12 15 19 20 14 8 27 8 -2 6 27 32 22 -5 3 -11 11 12 -8 12 -15 48 -3 10 -4 4 -11 -0 5 5 1 1 11 5 6 3 4
10 12 12 10 10 12 14 11 14 24 15 23 29 17 9 9 -0 -1 11 18 47 34 1 6 -3 2 15 -3 15 -20 34 -16 -3 22 15 -2 18 41 -6 1 2 8 4 5 5
10 12 11 8 9 13 12 11 12 20 10 14 14 23 8 14 8 32 12 11 -6 47 29 -7 -4 -0 4 15 -6 17 -9 18 17 4 10 7 10 -26 50 -1 -5 3 4 2 6
12 14 10 9 10 14 12 11 8 8 4 15 13 -1 -1 1 3 11 11 21 11 11 33 27 20 1 -4 4 1 2 27 -13 22 29 7 22 3 3 -34 34 15 -1 1 6 2
14 12 8 9 15 14 13 8 9 8 12 -8 3 24 -12 4 21 40 20 21 14 16 19 11 40 -24 8 4 2 7 -26 22 -35 13 6 7 33 15 6 -4 -18 18 13 3 -1
11 11 8 8 18 15 9 9 6 11 33 -11 4 -5 4 17 23 -9 -4 9 20 15 28 -5 42 34 30 5 -3 15 8 15 18 28 -5 8 23 19 17 5 7 7 -9 3 7
10 12 10 11 17 10 8 7 12 30 14 -8 -2 7 20 7 19 27 17 25 12 10 6 10 24 -11 20 8 15 -7 -30 2 25 -9 13 32 -34 28 36 6 13 4 10 -1 1
11 13 9 17 11 10 11 7 27 23 -9 34 -6 22 11 -1 15 32 14 14 21 4 17 4 14 14 4 11 0 20 28 -18 12 5 18 22 -59 53 5 17 8 9 15 9 4
11 15 9 14 13 17 10 14 20 13 -12 -18 13 8 3 -2 24 7 41 12 -1 22 24 27 28 -2 -1 28 56 -1 5 21 8 12 16 36 1 -56 57 22 16 19 22 17 12
13 11 9 9 9 13 8 14 18 -21 14 3 14 11 6 -1 11 15 43 -4 34 19 5 23 49 21 -11 -15 -6 15 -16 -19 4 9 11 30 4 19 -36 29 23 18 23 29 12
13 11 11 10 9 6 12 4 8 13 4 10 26 16 5 -2 43 19 46 3 7 1 5 23 18 47 13 16 -17 85 -24 35 -19 13 -1 13 21 63 -26 14 -48 56 21 16 16
9 15 13 11 10 8 5 6 5 9 7 13 15 6 2 -8 21 14 -11 17 10 9 14 0 24 40 -1 14 20 -38 28 2 23 6 7 14 12 20 38 40 13 10 12 20 18
12 16 9 9 7 7 9 3 12 11 10 19 -2 9 6 -3 27 12 -25 36 24 30 7 8 13 49 35 10 -21 31 -32 13 2 12 10 9 17 30 -15 2 28 16 10 8 13
12 16 15 15 19 20 11 1 14 16 10 9 19 6 2 2 17 15 -18 26 10 24 13 13 7 53 17 39 7 -23 34 -57 9 11 12 17 13 20 25 28 -10 9 7 -8 13
15 17 12 17 10 7 11 0 12 14 8 6 18 3 2 9 31 11 -7 0 10 19 20 25 9 6 6 17 27 11 9 14 0 1 10 12 15 20 22 31 35 17 14 11 21
15 16 8 1 10 7 7 6 10 10 19 8 15 -7 10 11 -4 7 -12 0 10 22 35 4 -1 34 25 35 6 9 7 13 1 -3 11 43 13 7 -2 1 26 41 26 18 28
10 4 7 -1 13 10 9 5 1 7 13 4 10 10 13 11 20 -8 7 7 15 14 13 21 17 6 27 26 27 4 5 8 3 16 -15 5 -5 -10 -14 -5 3 -4 44 29 23
15 10 11 15 4 8 -3 0 6 1 7 14 8 7 18 13 10 -0 1 3 11 -4 13 15 23 9 12 6 34 22 6 3 5 -21 -14 11 -8 -18 -7 3 11 5 3 41 32
12 10 10 7 8 10 7 2 2 5 -0 14 5 14 16 2 15 21 20 8 6 5 4 8 20 2 15 25 10 11 15 8 12 8 5 7 -22 8 24 6 -5 5 6 8 41
Height
3074 3069 3064 3060 3056 3052 3047 3043 3040 3037 3035 3033 3031 3029 3029 3029 3028 3027 3030 3037 3037 3037 3039 3040 3041 3045 3047 3051 3054 3057 3059 3056 3057 3063 3069 3072 3076 3081 3085 3088 3091 3094 3098 3103 3106
3069 3064 3059 3054 3050 3046 3041 3037 3032 3029 3027 3025 3023 3021 3020 3019 3018 3021 3027 3026 3028 3029 3032 3035 3038 3040 3042 3045 3049 3050 3051 3051 3056 3063 3068 3069 3073 3076 3080 3083 3086 3090 3095 3100 3104
3064 3059 3053 3048 3044 3040 3034 3029 3024 3022 3019 3016 3012 3011 3011 3008 3008 3013 3014 3016 3018 3020 3024 3029 3032 3034 3037 3040 3042 3043 3040 3049 3053 3060 3065 3067 3070 3073 3075 3078 3083 3089 3093 3097 3100
3059 3054 3048 3043 3038 3033 3027 3021 3017 3013 3010 3005 3001 3002 3002 3000 3002 3002 3001 3005 3009 3012 3019 3021 3025 3027 3029 3031 3035 3037 3040 3045 3051 3057 3061 3064 3068 3070 3071 3076 3081 3086 3092 3094 3097
3053 3049 3043 3037 3031 3026 3020 3014 3010 3005 3002 2997 2993 2993 2992 2990 2990 2997 2998 3000 3001 3003 3010 3015 3018 3021 3023 3026 3032 3032 3037 3042 3046 3053 3056 3059 3061 3065 3069 3071 3076 3081 3086 3091 3094
3048 3043 3037 3031 3025 3019 3013 3008 3003 2999 2995 2990 2987 2987 2983 2977 2982 2990 2989 2995 2997 2998 3001 3006 3012 3016 3018 3020 3025 3027 3032 3038 3041 3047 3051 3055 3057 3060 3067 3069 3072 3078 3083 3087 3091
3043 3038 3032 3025 3019 3012 3006 3001 2996 2992 2989 2984 2981 2978 2971 2969 2977 2978 2980 2984 2987 2990 2994 2999 3005 3011 3013 3016 3020 3025 3028 3033 3036 3040 3043 3047 3052 3052 3062 3065 3068 3074 3079 3083 3087
3038 3033 3028 3020 3013 3005 3000 2995 2989 2987 2982 2977 2974 2972 2962 2969 2967 2967 2969 2971 2977 2982 2987 2991 2996 3001 3005 3011 3014 3018 3024 3026 3028 3034 3036 3043 3043 3051 3058 3060 3066 3070 3074 3080 3084
3034 3028 3021 3015 3008 3000 2995 2990 2985 2982 2975 2972 2970 2967 2965 2963 2963 2963 2963 2963 2969 2974 2979 2984 2986 2995 3001 3005 3010 3010 3013 3018 3024 3027 3034 3034 3034 3045 3050 3055 3061 3066 3071 3076 3079
3030 3023 3016 3010 3003 2997 2991 2985 2982 2978 2972 2967 2966 2968 2963 2961 2961 2962 2962 2961 2961 2965 2973 2979 2982 2986 2989 2996 2995 3003 3006 3013 3017 3022 3027 3028 3031 3038 3046 3050 3056 3061 3066 3071 3076
3026 3020 3013 3007 3000 2994 2988 2981 2975 2974 2971 2968 2966 2965 2962 2960 2958 2959 2959 2958 2959 2961 2965 2972 2976 2973 2977 2986 2994 3004 3007 3008 3013 3018 3023 3022 3029 3034 3041 3046 3051 3057 3062 3067 3073
3022 3016 3010 3004 2998 2991 2986 2980 2976 2972 2966 2966 2965 2963 2961 2958 2955 2954 2953 2955 2957 2958 2962 2969 2963 2967 2982 2986 2992 2998 3001 3006 3010 3015 3019 3021 3024 3030 3037 3040 3046 3052 3057 3061 3067
3019 3013 3008 3003 2997 2991 2986 2981 2976 2971 2967 2966 2965 2962 2961 2957 2951 2948 2949 2949 2951 2953 2957 2958 2958 2971 2976 2982 2988 2991 2996 3001 3007 3011 3015 3018 3021 3024 3029 3035 3040 3045 3052 3056 3062
3015 3008 3003 3001 2997 2990 2985 2980 2975 2970 2966 2968 2965 2963 2959 2953 2949 2947 2946 2947 2945 2946 2951 2953 2959 2964 2970 2975 2983 2985 2990 2997 3002 3006 3006 3013 3012 3015 3021 3026 3032 3038 3043 3048 3054
3010 3005 3001 2994 2992 2988 2985 2979 2974 2971 2972 2969 2965 2962 2957 2955 2948 2942 2940 2939 2939 2942 2946 2947 2952 2957 2963 2963 2979 2977 2989 2992 2998 2998 3001 3004 3012 3006 3014 3017 3019 3026 3033 3040 3046
3009 3004 3000 2995 2989 2986 2983 2978 2974 2973 2971 2967 2964 2959 2955 2952 2945 2939 2937 2937 2938 2940 2942 2945 2950 2955 2956 2965 2971 2982 2984 2988 2993 2992 2989 2989 2999 2998 3001 3001 3014 3021 3027 3033 3039
3006 3003 2998 2993 2989 2985 2981 2978 2976 2974 2974 2968 2960 2957 2954 2948 2944 2939 2936 2936 2937 2939 2938 2941 2944 2950 2954 2958 2965 2974 2976 2975 2979 2983 2979 2987 2996 2990 2996 3002 3008 3014 3020 3027 3032
3005 2999 2995 2992 2988 2984 2980 2979 2976 2975 2971 2967 2962 2957 2954 2949 2943 2938 2934 2935 2933 2935 2935 2937 2940 2940 2946 2951 2957 2962 2968 2970 2969 2971 2981 2987 2986 2985 2995 2998 3002 3008 3013 3020 3026
3002 2998 2994 2990 2987 2984 2981 2979 2979 2976 2972 2966 2960 2957 2954 2951 2946 2938 2935 2934 2932 2931 2934 2933 2932 2934 2941 2949 2958 2957 2963 2967 2973 2977 2979 2984 2983 2984 2987 2994 2998 3001 3005 3010 3017
3002 2998 2994 2991 2987 2984 2982 2980 2979 2975 2971 2968 2966 2961 2957 2951 2946 2939 2935 2932 2931 2930 2931 2931 2929 2929 2937 2948 2953 2957 2963 2967 2964 2972 2977 2983 2982 2981 2982 2987 2993 2997 3003 3007 3013
3001 2997 2994 2992 2988 2984 2982 2980 2978 2976 2972 2970 2967 2963 2959 2955 2948 2942 2937 2931 2931 2929 2930 2929 2928 2929 2935 2940 2945 2951 2957 2958 2962 2964 2970 2980 2980 2978 2981 2984 2989 2993 2998 3005 3009
3000 3000 2996 2993 2991 2985 2982 2980 2978 2975 2972 2970 2967 2964 2960 2957 2949 2945 2941 2936 2931 2930 2928 2928 2927 2925 2933 2937 2946 2950 2953 2955 2960 2966 2966 2969 2980 2978 2979 2981 2985 2989 2994 2999 3003
2998 2995 2993 2991 2989 2986 2984 2981 2977 2973 2972 2969 2967 2966 2962 2957 2953 2947 2943 2938 2933 2931 2928 2928 2927 2926 2933 2940 2944 2949 2953 2957 2962 2967 2968 2970 2979 2978 2978 2980 2981 2985 2990 2993 2998
2996 2994 2991 2989 2987 2985 2983 2980 2978 2975 2971 2969 2967 2965 2960 2956 2954 2948 2944 2939 2934 2931 2927 2929 2929 2927 2928 2928 2937 2944 2950 2956 2961 2966 2968 2971 2975 2978 2980 2980 2982 2984 2986 2989 2994
2993 2991 2988 2988 2986 2984 2982 2981 2977 2973 2972 2968 2966 2964 2961 2956 2951 2948 2945 2939 2937 2933 2931 2930 2930 2930 2929 2932 2937 2942 2947 2952 2959 2964 2969 2973 2975 2978 2979 2981 2984 2985 2985 2987 2990
2995 2991 2987 2986 2984 2982 2981 2979 2976 2974 2971 2967 2964 2962 2960 2957 2955 2947 2946 2944 2940 2936 2933 2932 2932 2933 2932 2935 2938 2943 2948 2953 2959 2963 2967 2971 2975 2977 2980 2983 2985 2986 2987 2987 2988
2992 2988 2986 2986 2983 2981 2979 2977 2975 2972 2971 2967 2963 2959 2957 2954 2950 2947 2945 2943 2941 2939 2936 2935 2936 2935 2936 2937 2940 2945 2947 2950 2956 2961 2967 2970 2975 2978 2981 2983 2985 2987 2988 2989 2987